SERIAL,TIME,MODEL,SN(OPTODE),OXYGEN,SATURATION,TEMPERATURE,CALPHASE,TCPHASE,C1RPH,C2RPH,C1AMP,C2AMP,RAWTEMP,CHECK
2,1314480628,4330,355,198.4613037109375000,60.7190208435058600,13.2625598907470700,34.5520210266113300,36.5748405456543000,39.9814109802246100,3.4065780639648438,751.3314208984375000,675.7672119140625000,413.3984069824219000,21419
2,1314484224,4330,355,197.9403076171875000,60.5367088317871100,13.2455701828002930,34.5924186706543000,36.6142997741699200,39.9811897277832000,3.3668820858001710,752.4788818359375000,675.9738769531250000,413.9442138671875000,13335
2,1314487824,4330,355,197.4949035644531200,60.4027099609375000,13.2472295761108400,34.6191291809082000,36.6403999328613300,40.0276603698730500,3.3872599601745605,753.1458740234375000,676.0128173828125000,413.8908996582031000,43193
2,1314491424,4330,355,197.0155944824218800,60.2551803588867200,13.2465295791625980,34.6487884521484400,36.6693801879882800,40.0359497070312500,3.3665699958801270,753.8446044921875000,675.9672241210938000,413.9132995605469000,44650
2,1314495024,4330,355,197.0005950927734400,60.2426300048828100,13.2406101226806640,34.6525382995605500,36.6730384826660160,40.0379486083984400,3.3649060726165770,753.8656005859375000,675.9871215820312000,414.1034851074219000,56690
2,1314498624,4330,355,196.2039031982422000,59.9808998107910160,13.2270698547363280,34.7084312438964840,36.7276496887207000,40.0904083251953100,3.3627619743347170,755.3331298828125000,676.1099243164062000,414.5387878417969000,39271
2,1314502224,4330,355,196.6275024414062500,60.1052284240722660,13.2231998443603520,34.6842803955078100,36.7040481567382800,40.0750007629394500,3.3709490299224854,754.5830078125000000,676.1567993164062000,414.6629943847656000,59152
2,1314505824,4330,355,197.3529052734375000,60.3264999389648440,13.2228403091430660,34.6401290893554700,36.6609191894531250,40.0336494445800800,3.3727259635925293,753.3419799804688000,676.1463012695312000,414.6747131347656000,1134
2,1314509424,4330,355,197.8950958251953000,60.5222587585449200,13.2451200485229500,34.5956993103027340,36.6175117492675800,39.9742317199707000,3.3567199707031250,752.1580200195312000,675.9158935546875000,413.9585876464844000,26886
2,1314513024,4330,355,195.2902069091797000,59.7261886596679700,13.2455501556396480,34.7557296752929700,36.7738609313964840,40.1383094787597660,3.3644490242004395,756.2764892578125000,675.8823242187500000,413.9450073242187500,62466
2,1314516624,4330,355,195.6632995605468800,59.8398895263671900,13.2452497482299800,34.7328605651855500,36.7515182495117200,40.1041908264160160,3.3526690006256104,755.7941894531250000,675.9011840820312000,413.9544982910156000,4948
2,1314520224,4330,355,194.3117980957031200,59.4261093139648440,13.2448902130126950,34.8170700073242200,36.8337898254394500,40.2000007629394500,3.3662109375000000,757.8900756835938000,675.9166259765625000,413.9660949707031000,3680
2,1314523824,4330,355,197.2366943359375000,60.3214797973632800,13.2455501556396480,34.6356811523437500,36.6565704345703100,40.0183105468750000,3.3617401123046875,753.1112060546875000,675.8082275390625000,413.9447021484375000,17024
2,1314527424,4330,355,197.2615966796875000,60.3299713134765600,13.2461700439453120,34.6336402893066400,36.6545791625976560,40.0231590270996100,3.3685839176177980,752.9780883789062000,675.8405151367188000,413.9248962402344000,21325
2,1314531024,4330,355,195.1611022949218800,59.6880493164062500,13.2465400695800780,34.7631607055664060,36.7811088562011700,40.1498107910156250,3.3686978816986084,756.3594970703125000,675.8593139648438000,413.9129943847656000,57537
2,1314534624,4330,355,195.0908050537109400,59.6550102233886700,13.2378702163696290,34.7720413208007800,36.7897911071777340,40.1584014892578100,3.3686070442199707,756.5366821289062000,675.8980102539062000,414.1914978027344000,44374
2,1314538224,4330,355,195.7906036376953000,59.8628616333007800,13.2332601547241210,34.7311706542968750,36.7498588562011700,40.1096000671386700,3.3597409725189210,755.5377197265625000,675.9088745117188000,414.3395996093750000,26056
2,1314541824,4330,355,195.2991027832031200,59.6986618041992200,13.2228097915649410,34.7666397094726560,36.7845191955566400,40.1388511657714840,3.3543400764465330,756.4509887695312000,675.9763183593750000,414.6754150390625000,45853
2,1314545424,4330,355,198.1455993652343800,60.5687484741210940,13.2228002548217770,34.5912895202636700,36.6132011413574200,39.9629096984863300,3.3497090339660645,751.8273925781250000,675.9901733398438000,414.6758117675781000,46027
2,1314549024,4330,355,196.6802062988281200,60.1263389587402340,13.2269201278686520,34.6790313720703100,36.6989212036132800,40.0517616271972660,3.3528370857238770,754.1166992187500000,675.8756713867188000,414.5433959960937500,15202
2,1314552624,4330,355,198.7935943603515600,60.8208389282226560,13.2626695632934570,34.5318908691406250,36.5551681518554700,39.8989410400390600,3.3437728881835938,750.3496093750000000,675.6774291992188000,413.3945922851562500,40218
2,1314556224,4330,355,195.7915039062500000,59.9009513854980500,13.2616395950317380,34.7161903381347660,36.7352294921875000,40.0933494567871100,3.3581240177154540,755.1320800781250000,675.7069702148438000,413.4278869628906000,47433
2,1314559824,4330,355,196.7633056640625000,60.1982688903808600,13.2616395950317380,34.6566009521484400,36.6770095825195300,40.0303192138671900,3.3533101081848145,753.6588134765625000,675.7186889648438000,413.4277954101562500,34087
2,1314563424,4330,355,196.9196929931640600,60.2512588500976560,13.2654399871826170,34.6450386047363300,36.6657104492187500,40.0161018371582000,3.3503880500793457,753.2008056640625000,675.6046752929688000,413.3057861328125000,12615
2,1314567024,4330,355,194.8076934814453000,59.6049194335937500,13.2653598785400390,34.7761688232421900,36.7938308715820300,40.1277313232421900,3.3338999748229980,756.7103271484375000,675.5836181640625000,413.3082885742187500,17489
2,1314570624,4330,355,194.1721038818359400,59.4102897644043000,13.2652301788330080,34.8157691955566400,36.8325119018554700,40.1775398254394500,3.3450241088867188,757.6801147460938000,675.5728149414062000,413.3124084472656000,6578
2,1314574224,4330,355,197.3957977294922000,60.3423194885253900,13.2248601913452150,34.6359291076660160,36.6568107604980500,39.9923896789550800,3.3355710506439210,752.7855834960938000,675.7302856445312000,414.6095886230469000,9116
2,1314577824,4330,355,198.0585937500000000,60.5461196899414060,13.2257299423217770,34.5952110290527340,36.6170310974121100,39.9685211181640600,3.3514859676361084,751.5745849609375000,675.7650756835938000,414.5817871093750000,4677
2,1314581424,4330,355,195.7402954101562500,59.8374290466308600,13.2257299423217770,34.7374916076660160,36.7560310363769500,40.1108093261718750,3.3547739982604980,755.2061767578125000,675.6740112304688000,414.5816040039062500,55129
2,1314585024,4330,355,196.5921020507812500,60.0950393676757800,13.2236604690551760,34.6865081787109400,36.7062301635742200,40.0480690002441400,3.3418350219726562,754.1035766601562000,675.7841796875000000,414.6481018066406000,27409
2,1314588624,4330,355,194.8141021728515600,59.5517692565918000,13.2238302230834960,34.7963218688964840,36.8135108947753900,40.1534309387207000,3.3399119377136230,756.9320068359375000,675.7545776367188000,414.6426086425781000,61581
2,1314592224,4330,355,197.8601074218750000,60.4824905395507800,13.2235603332519530,34.6082611083984400,36.6297798156738300,39.9739799499511700,3.3442080020904540,751.9782714843750000,675.8021240234375000,414.6516113281250000,60080
2,1314595824,4330,355,198.9315948486328000,60.8539581298828100,13.2559499740600590,34.5271110534668000,36.5504913330078100,39.8815917968750000,3.3310999870300293,750.0745849609375000,675.6279907226562000,413.6105957031250000,11488
2,1314599424,4330,355,195.3777008056640600,59.7749786376953100,13.2620697021484380,34.7421417236328100,36.7605781555175800,40.0937004089355500,3.3331220149993896,755.6594238281250000,675.4680786132812000,413.4139099121094000,28446
2,1314603024,4330,355,193.9839019775390600,59.3492202758789060,13.2625904083251950,34.8284301757812500,36.8448905944824200,40.1950416564941400,3.3501510620117188,757.7781982421875000,675.5109252929688000,413.3971862792969000,28132
2,1314606624,4330,355,195.4882049560547000,59.7899017333984400,13.2479095458984380,34.7421798706054700,36.7606201171875000,40.0890998840332000,3.3284759521484375,755.6646118164062000,675.5509033203125000,413.8688964843750000,38879
2,1314610224,4330,355,194.6858062744140600,59.5434112548828100,13.2471103668212890,34.7926712036132800,36.8099403381347660,40.1610603332519500,3.3511118888854980,756.6983032226562000,675.5347290039062000,413.8948059082031000,63134
2,1314613824,4330,355,194.5755004882812500,59.5096702575683600,13.2470998764038090,34.7997589111328100,36.8168792724609400,40.1603393554687500,3.3434600830078125,756.9506225585938000,675.5366821289062000,413.8952026367187500,21771
2,1314617424,4330,355,197.1531066894531200,60.2689285278320300,13.2254695892333980,34.6508216857910160,36.6713600158691400,40.0220794677734400,3.3507161140441895,752.7636108398438000,675.6469116210938000,414.5900878906250000,58111
2,1314621024,4330,355,196.8674926757812500,60.1823310852050800,13.2259902954101560,34.6683883666992200,36.6885299682617200,40.0243186950683600,3.3357930183410645,753.3228149414062000,675.5930786132812000,414.5733032226562500,41122
2,1314624624,4330,355,195.6203002929687500,59.8017692565918000,13.2265100479125980,34.7448616027832000,36.7632408142089840,40.1161804199218750,3.3529429435729980,755.2434082031250000,675.5805053710938000,414.5564880371094000,43111
2,1314628224,4330,355,197.2911987304687500,60.3095397949218750,13.2242603302001950,34.6430091857910160,36.6637306213378900,40.0090904235839840,3.3453600406646730,752.7429199218750000,675.6356811523438000,414.6289062500000000,8475
2,1314631824,4330,355,194.5991058349609400,59.4869384765625000,13.2245302200317380,34.8091697692871100,36.8260688781738300,40.1795196533203100,3.3534469604492188,756.8533935546875000,675.5740966796875000,414.6203002929687500,62029
2,1314635424,4330,355,195.5888977050781200,59.7897300720214840,13.2246799468994140,34.7479095458984400,36.7662086486816400,40.1107788085937500,3.3445661067962646,755.3245849609375000,675.5153808593750000,414.6152954101562500,11304
2,1314639024,4330,355,198.7897033691406200,60.7979316711425800,13.2466402053833000,34.5403709411621100,36.5634498596191400,39.8973197937011700,3.3338699340820312,750.1395874023438000,675.4793701171875000,413.9099121093750000,44888
2,1314642624,4330,355,195.5218963623047000,59.7985496520996100,13.2466697692871100,34.7408218383789060,36.7592887878418000,40.1071815490722660,3.3478848934173584,755.2042846679688000,675.4675292968750000,413.9089965820312500,63342
2,1314646224,4330,355,196.2519989013672000,60.0218505859375000,13.2466897964477540,34.6959114074707000,36.7154197692871100,40.0659599304199200,3.3505480289459230,753.9685058593750000,675.4440917968750000,413.9082946777344000,61448
2,1314649824,4330,355,195.3710021972656200,59.7485809326171900,13.2438097000122070,34.7518081665039060,36.7700309753418000,40.1142005920410160,3.3441700935363770,755.5347290039062000,675.4407958984375000,414.0008850097656000,6881
2,1314653424,4330,355,196.7266998291015600,60.1699714660644500,13.2488698959350590,34.6653900146484400,36.6856002807617200,40.0178108215332000,3.3322069644927980,753.2127075195312000,675.3657226562500000,413.8380126953125000,51024
2,1314657024,4330,355,196.6641998291015600,60.1515388488769500,13.2494001388549800,34.6685791015625000,36.6887092590332000,40.0392189025878900,3.3505020141601562,753.1284179687500000,675.3897094726562000,413.8212890625000000,17604
2,1314660624,4330,355,195.8043975830078000,59.8884696960449200,13.2493295669555660,34.7220306396484400,36.7409400939941400,40.0815010070800800,3.3405609130859375,754.5817260742188000,675.3322753906250000,413.8233032226562500,47460
2,1314664224,4330,355,193.7359924316406200,59.2529792785644500,13.2471504211425780,34.8520393371582000,36.8679618835449200,40.2090492248535160,3.3410871028900146,758.0383300781250000,675.3253784179688000,413.8934020996094000,25165
2,1314667824,4330,355,191.6564941406250000,58.6157112121582000,13.2461900711059570,34.9837417602539060,36.9966316223144500,40.3285789489746100,3.3319549560546875,761.5053710937500000,675.3637695312500000,413.9242858886719000,41647
2,1314671424,4330,355,192.9387054443359400,59.0066909790039060,13.2453002929687500,34.9028511047363300,36.9175910949707000,40.2572898864746100,3.3396990299224854,759.3740844726562000,675.3018798828125000,413.9530029296875000,35756
2,1314675024,4330,355,194.7993927001953000,59.5623207092285160,13.2351598739624020,34.7917709350585940,36.8090705871582000,40.1421813964843750,3.3331151008605957,756.4254150390625000,675.3825073242188000,414.2785949707031000,16860
2,1314678624,4330,355,196.2891998291015600,60.0188713073730500,13.2359199523925780,34.6987991333007800,36.7182388305664060,40.0534706115722660,3.3352279663085938,753.8801269531250000,675.3651123046875000,414.2542114257812500,19072
2,1314682224,4330,355,193.7313995361328000,59.2356605529785160,13.2351102828979500,34.8581085205078100,36.8738899230957000,40.2115898132324200,3.3377079963684080,758.1765747070312000,675.3870239257812000,414.2802124023437500,33085
2,1314685824,4330,355,195.0491027832031200,59.6381797790527340,13.2348003387451170,34.7758102416992200,36.7934684753418000,40.1236114501953100,3.3301389217376710,755.9721069335938000,675.4199218750000000,414.2903137207031000,44775
2,1314689424,4330,355,193.8249053955078000,59.2642288208007800,13.2350797653198240,34.8525085449218750,36.8684196472168000,40.1935005187988300,3.3250811100006104,757.9321289062500000,675.3082885742188000,414.2811889648437500,56757
2,1314693024,4330,355,196.0910034179687500,59.9574394226074200,13.2353096008300780,34.7112808227539060,36.7304306030273440,40.0598602294921900,3.3294301033020020,754.2706298828125000,675.3942871093750000,414.2738037109375000,10750
2,1314696624,4330,355,195.5444946289062500,59.8025093078613300,13.2444496154785160,34.7406806945800800,36.7591590881347660,40.0894813537597660,3.3303220272064210,754.8955078125000000,675.2438964843750000,413.9802856445312500,41225
2,1314700224,4330,355,194.3468017578125000,59.4378089904785160,13.2456703186035160,34.8143615722656250,36.8311386108398440,40.1633300781250000,3.3321909904479980,756.8441162109375000,675.2114257812500000,413.9408874511719000,11529
2,1314703824,4330,355,193.8726959228515600,59.2929000854492200,13.2457304000854500,34.8440093994140600,36.8601112365722660,40.1922302246093750,3.3321230411529540,757.5172119140625000,675.1727294921875000,413.9389953613281000,60671
2,1314707424,4330,355,193.7220001220703000,59.2461013793945300,13.2451696395874020,34.8539695739746100,36.8698387145996100,40.2015419006347660,3.3316960334777830,757.7338867187500000,675.1373901367188000,413.9569091796875000,65474
2,1314711024,4330,355,195.9777069091797000,59.9352798461914060,13.2446498870849610,34.7136001586914060,36.7327003479003900,40.0652885437011700,3.3325960636138916,754.0775146484375000,675.1530761718750000,413.9737854003906000,5171
2,1314714624,4330,355,196.7160949707031200,60.1571807861328100,13.2417402267456050,34.6695899963378900,36.6897010803222660,40.0288696289062500,3.3391718864440920,752.8524169921875000,675.1920776367188000,414.0672912597656000,34516
2,1314718224,4330,355,195.0303955078125000,59.6338806152343750,13.2358798980712890,34.7770118713378900,36.7946510314941400,40.1245613098144500,3.3299100399017334,755.7922973632812000,675.2476806640625000,414.2554931640625000,11651
2,1314721824,4330,355,194.7973937988281200,59.5430488586425800,13.2211198806762700,34.7987518310546900,36.8158912658691400,40.1515388488769500,3.3356480598449707,756.2376708984375000,675.3446044921875000,414.7297058105469000,64796
2,1314725424,4330,355,197.8222961425781200,60.4864387512207000,13.2350502014160160,34.6050109863281250,36.6266098022460940,39.9635009765625000,3.3368909358978270,751.1400146484375000,675.1846923828125000,414.2821960449219000,59386
2,1314729024,4330,355,197.2864074707031200,60.3387489318847660,13.2470798492431640,34.6314086914062500,36.6524009704589840,39.9935607910156250,3.3411641120910645,751.7844848632812000,675.0427856445312000,413.8958129882812500,48796
2,1314732624,4330,355,194.9062957763672000,59.6102790832519500,13.2466602325439450,34.7791290283203100,36.7967185974121100,40.1416816711425800,3.3449549674987793,755.7382202148438000,675.0715942382812000,413.9090881347656000,57555
2,1314736224,4330,355,196.0034027099609400,59.9381484985351560,13.2409400939941400,34.7141189575195300,36.7332000732421900,40.0782890319824200,3.3450930118560790,753.9077758789062000,675.0767822265625000,414.0928039550781000,53405
2,1314739824,4330,355,196.1772003173828000,59.9990005493164060,13.2467002868652340,34.7002296447753900,36.7196388244628900,40.0662994384765600,3.3466639518737793,753.5104980468750000,674.9818115234375000,413.9079895019531000,50985
2,1314743424,4330,355,194.7651977539062500,59.5667915344238300,13.2464103698730470,34.7876396179199200,36.8050384521484400,40.1539306640625000,3.3488919734954834,755.7406005859375000,674.9995727539062000,413.9171142578125000,6408
2,1314747024,4330,355,194.0717010498047000,59.3485717773437500,13.2417898178100590,34.8334503173828100,36.8497886657714840,40.1932983398437500,3.3435060977935790,757.0408935546875000,675.0664062500000000,414.0654907226562500,13245
2,1314750624,4330,355,192.6020965576172000,58.8917503356933600,13.2361497879028320,34.9285202026367200,36.9426803588867200,40.2781410217285160,3.3354570865631104,759.5765991210938000,675.1143188476562000,414.2468872070312500,64607
2,1314754224,4330,355,192.5505065917968800,58.8754081726074200,13.2357196807861330,34.9321784973144500,36.9462509155273440,40.2862091064453100,3.3399579524993896,759.5803833007812000,674.9951171875000000,414.2607116699219000,30114
2,1314757824,4330,355,197.0276031494140600,60.2533607482910160,13.2424402236938480,34.6503410339355500,36.6708908081054700,40.0077209472656250,3.3368299007415770,752.4027709960938000,675.0944213867188000,414.0447998046875000,53264
2,1314761424,4330,355,194.4412994384765600,59.4632110595703100,13.2430000305175780,34.8097381591796900,36.8266296386718750,40.1652183532714840,3.3385930061340330,756.5311889648438000,675.0916748046875000,414.0267944335937500,34845
2,1314765024,4330,355,194.8067932128906200,59.5749282836914060,13.2429895401000980,34.7872009277343750,36.8045997619628900,40.1419181823730500,3.3373179435729980,755.9199829101562000,675.0192260742188000,414.0270080566406000,57474
2,1314768624,4330,355,196.7026977539062500,60.1450004577636700,13.2357196807861330,34.6736793518066400,36.6936988830566400,40.0330810546875000,3.3393859863281250,752.7775268554688000,675.0120849609375000,414.2605895996094000,42669
2,1314772224,4330,355,196.9732055664062500,60.2421684265136700,13.2465000152587890,34.6510887145996100,36.6716194152832000,40.0064201354980500,3.3348009586334230,752.1016845703125000,674.9191284179688000,413.9143981933594000,64408
2,1314775824,4330,355,198.6920013427734400,60.7675781250000000,13.2462701797485350,34.5460014343261700,36.5689506530761700,39.9125785827636700,3.3436360359191895,749.3303833007812000,674.9238891601562000,413.9218139648437500,23433
2,1314779424,4330,355,197.6311950683593800,60.4436111450195300,13.2466497421264650,34.6111412048339840,36.6325912475585940,39.9785003662109400,3.3459091186523438,751.0214233398438000,674.9259033203125000,413.9093933105469000,37072
2,1314783024,4330,355,194.8125000000000000,59.5717391967773440,13.2392597198486330,34.7889213562011700,36.8062782287597660,40.1536102294921900,3.3473279476165770,755.6087036132812000,674.9257202148438000,414.1467895507812500,24705
2,1314786624,4330,355,196.0466003417968800,59.9449615478515600,13.2361402511596680,34.7134704589843750,36.7325706481933600,40.0816497802734400,3.3490829467773438,753.6824951171875000,675.0131835937500000,414.2473144531250000,13444
2,1314790224,4330,355,197.4075927734375000,60.3713302612304700,13.2437400817871100,34.6260414123535160,36.6471481323242200,39.9886589050293000,3.3415150642395020,751.5695800781250000,674.9647827148438000,414.0029907226562500,62498
2,1314793824,4330,355,194.6221008300781200,59.5200004577636700,13.2441501617431640,34.7983703613281250,36.8155097961425800,40.1408195495605500,3.3253099918365480,756.1245727539062000,674.9749755859375000,413.9898071289062500,61747
2,1314797424,4330,355,198.0115051269531200,60.5566482543945300,13.2441902160644530,34.5888710021972660,36.6108398437500000,39.9426612854003900,3.3318181037902830,750.4287719726562000,674.8474121093750000,413.9884948730469000,29365
2,1314801024,4330,355,197.3787994384765600,60.3645782470703100,13.2452602386474610,34.6267814636230500,36.6478691101074200,39.9864997863769500,3.3386230468750000,751.4000244140625000,674.8438110351562000,413.9541015625000000,46465
2,1314804624,4330,355,195.1219024658203000,59.6759796142578100,13.2464799880981450,34.7661209106445300,36.7840118408203100,40.1195983886718750,3.3355870246887207,755.0009155273438000,674.8148803710938000,413.9148864746094000,44563
2,1314808224,4330,355,193.7677001953125000,59.2593803405761700,13.2446603775024410,34.8509407043457000,36.8668708801269500,40.1986198425293000,3.3317489624023438,757.1486816406250000,674.8112792968750000,413.9733886718750000,28624
2,1314811824,4330,355,193.9051971435547000,59.2998390197753900,13.2434597015380860,34.8431816101074200,36.8592987060546900,40.1910095214843750,3.3317110538482666,757.0510864257812000,674.8521118164062000,414.0119934082031000,52206
2,1314815424,4330,355,192.5903930664062500,58.8974914550781250,13.2432498931884770,34.9257316589355500,36.9399490356445300,40.2827796936035160,3.3428270816802980,759.1555786132812000,674.7993774414062000,414.0185852050781000,35804
2,1314819024,4330,355,196.3538970947265600,60.0489616394043000,13.2436504364013670,34.6905708312988300,36.7102012634277340,40.0523109436035160,3.3421099185943604,752.9708251953125000,674.7792968750000000,414.0060119628906000,43046
2,1314822624,4330,355,196.2201995849609400,60.0079612731933600,13.2435503005981450,34.6991386413574200,36.7185707092285160,40.0644493103027340,3.3458859920501710,753.0427856445312000,674.7559814453125000,414.0090026855469000,25022
2,1314826224,4330,355,194.6072998046875000,59.5149116516113300,13.2437095642089840,34.7994003295898440,36.8165206909179700,40.1424713134765600,3.3259510993957520,755.8884887695312000,674.7968139648438000,414.0039062500000000,22708
2,1314829824,4330,355,195.1649017333984400,59.6856689453125000,13.2439098358154300,34.7640991210937500,36.7820396423339840,40.1161003112793000,3.3340680599212646,754.8610229492188000,674.7501220703125000,413.9974975585937500,38862
2,1314833424,4330,355,195.0233001708984400,59.6425781250000000,13.2440299987792970,34.7729415893554700,36.7906684875488300,40.1329994201660160,3.3423230648040770,754.9213867187500000,674.7211914062500000,413.9934997558594000,3628
2,1314837024,4330,355,193.7754974365234400,59.2614898681640600,13.2444496154785160,34.8507614135742200,36.8666992187500000,40.2041282653808600,3.3374330997467040,757.0881958007812000,674.7324829101562000,413.9800109863281000,3210
2,1314840624,4330,355,192.3229064941406200,58.8173599243164060,13.2445297241210940,34.9419593811035160,36.9557991027832000,40.2954406738281250,3.3396379947662354,759.4467773437500000,674.6525878906250000,413.9776916503906000,51618
2,1314844224,4330,355,194.1183929443359400,59.3664016723632800,13.2444801330566400,34.8291702270507800,36.8456001281738300,40.1807899475097660,3.3351819515228270,756.3264160156250000,674.6713867187500000,413.9793090820312500,38723
2,1314847824,4330,355,193.3087005615234400,59.1186218261718750,13.2443399429321290,34.8799896240234400,36.8952598571777340,40.2278404235839840,3.3325810432434080,757.8842163085938000,674.7174072265625000,413.9837036132812500,35897